Weather History for Menomonie, WI

Change the Weather History Date:

Monday, September 23, 2013

  Actual Average (KEAU) Record (KEAU)
Temperature  
Mean Temperature 59 °F 57 °F  
Max Temperature 72 °F 68 °F 93 °F (1937)
Min Temperature 46 °F 45 °F 27 °F (1974)
Degree Days  
Heating Degree Days 6 9  
Month to date heating degree days 119  
Since 1 July heating degree days 158  
Cooling Degree Days 0 1  
Month to date cooling degree days 44  
Year to date cooling degree days 571  
Growing Degree Days 9 (Base 50)    
Moisture  
Dew Point 47 °F    
Average Humidity 69    
Maximum Humidity 92    
Minimum Humidity 39    
Precipitation  
Precipitation 0.00 in 0.12 in 2.83 in (2010)
Month to date precipitation 2.87  
Year to date precipitation 24.99  
Snow  
Snow 0.00 in 0.00 in T in (1928)
Month to date snowfall 0.0  
Since 1 July snowfall 0.0  
Since 1 September snowfall 0.0  
Snow Depth -    
Sea Level Pressure  
Sea Level Pressure 30.00 in    
Wind  
Wind Speed 7 mph (ESE)    
Max Wind Speed 17 mph    
Max Gust Speed 24 mph    
Visibility 10 miles    
Events      
T = Trace of Precipitation, MM = Missing Value Source: NWS Daily Summary

Daily Weather History Graph

Daily Weather History Graph

Search for Another Location

Airport:

Trip Planner

Search our weather history database for the weather conditions in past years. The results will help you decide how hot, cold, wet, or windy it might be!

Date:

Astronomy

Sep. 23, 2013 Rise Set
Actual Time 6:56 AM CDT 7:02 PM CDT
Civil Twilight 6:26 AM CDT 7:31 PM CDT
Nautical Twilight 5:52 AM CDT 8:05 PM CDT
Astronomical Twilight 5:17 AM CDT 8:40 PM CDT
Moon 9:22 PM CDT (9/23) 11:27 AM CDT (9/23)
Length of Visible Light 13h 04m
Length of Day
12h 06m
Waning Gibbous, 81% of the Moon is Illuminated
Sep 23
Waning Gibbous
Sep 26
Last Quarter
Oct 4
New
Oct 11
First Quarter
Oct 18
Full

Hourly Weather History & Observations

Time (CDT) Temp. Windchill Dew Point Humidity Pressure Visibility Wind Dir Wind Speed Gust Speed Precip Events Conditions
12:15 AM 52.3 °F - 46.4 °F 80% 29.98 in 10.0 mi ESE 4.6 mph - N/A   Clear
12:35 AM 51.8 °F - 46.4 °F 82% 29.98 in 10.0 mi East 4.6 mph - N/A   Clear
12:55 AM 51.4 °F - 46.0 °F 82% 29.98 in 10.0 mi ESE 5.8 mph - N/A   Clear
1:15 AM 51.3 °F - 45.9 °F 82% 29.98 in 10.0 mi East 4.6 mph - N/A   Clear
1:35 AM 50.9 °F - 45.7 °F 82% 29.99 in 10.0 mi East 4.6 mph - N/A   Clear
1:55 AM 50.7 °F - 45.5 °F 82% 29.99 in 10.0 mi East 4.6 mph - N/A   Clear
2:15 AM 50.4 °F - 44.8 °F 81% 30.00 in 10.0 mi East 4.6 mph - N/A   Clear
2:35 AM 50.0 °F - 44.6 °F 82% 30.00 in 10.0 mi East 3.5 mph - N/A   Clear
2:55 AM 49.5 °F - 44.4 °F 83% 29.99 in 10.0 mi East 4.6 mph - N/A   Clear
3:15 AM 49.3 °F - 44.1 °F 82% 29.99 in 10.0 mi East 4.6 mph - N/A   Clear
3:35 AM 48.2 °F - 43.7 °F 84% 30.00 in 10.0 mi East 3.5 mph - N/A   Clear
3:55 AM 48.4 °F - 43.7 °F 84% 30.00 in 10.0 mi East 4.6 mph - N/A   Clear
4:15 AM 48.2 °F - 43.5 °F 84% 30.00 in 10.0 mi East 4.6 mph - N/A   Clear
4:35 AM 48.2 °F - 43.3 °F 83% 30.00 in 10.0 mi East 5.8 mph - N/A   Clear
4:55 AM 47.7 °F - 43.5 °F 86% 30.00 in 10.0 mi East 6.9 mph - N/A   Clear
5:15 AM 47.5 °F - 43.7 °F 87% 30.00 in 10.0 mi East 5.8 mph - N/A   Clear
5:35 AM 47.5 °F - 43.9 °F 87% 30.00 in 10.0 mi East 5.8 mph - N/A   Clear
5:55 AM 47.3 °F - 43.9 °F 88% 30.00 in 10.0 mi East 4.6 mph - N/A   Clear
6:15 AM 47.3 °F - 44.1 °F 88% 30.01 in 10.0 mi East 4.6 mph - N/A   Clear
6:35 AM 46.9 °F - 44.1 °F 90% 30.01 in 10.0 mi East 4.6 mph - N/A   Clear
6:55 AM 46.6 °F - 44.1 °F 91% 30.02 in 10.0 mi East 4.6 mph - N/A   Clear
7:15 AM 46.4 °F 45.2 °F 44.2 °F 92% 30.03 in 10.0 mi East 3.5 mph - N/A   Clear
7:35 AM 47.5 °F - 45.1 °F 92% 30.03 in 10.0 mi East 4.6 mph - N/A   Clear
7:55 AM 48.4 °F - 45.7 °F 90% 30.03 in 10.0 mi East 4.6 mph - N/A   Clear
8:15 AM 49.8 °F - 46.2 °F 87% 30.03 in 10.0 mi East 5.8 mph - N/A   Clear
8:35 AM 50.9 °F - 46.6 °F 85% 30.04 in 10.0 mi East 8.1 mph - N/A   Clear
8:55 AM 52.5 °F - 47.3 °F 82% 30.04 in 10.0 mi ESE 10.4 mph - N/A   Clear
9:15 AM 53.6 °F - 46.9 °F 78% 30.04 in 10.0 mi ESE 13.8 mph - N/A   Clear
9:35 AM 55.4 °F - 47.7 °F 75% 30.04 in 10.0 mi ESE 11.5 mph - N/A   Clear
9:55 AM 56.7 °F - 47.7 °F 72% 30.04 in 10.0 mi ESE 12.7 mph - N/A   Clear
10:15 AM 58.3 °F - 47.8 °F 68% 30.04 in 10.0 mi ESE 11.5 mph - N/A   Clear
10:35 AM 60.3 °F - 48.2 °F 64% 30.03 in 10.0 mi ESE 12.7 mph 17.3 mph N/A   Clear
10:55 AM 61.0 °F - 48.0 °F 62% 30.03 in 10.0 mi ESE 11.5 mph - N/A   Clear
11:15 AM 62.6 °F - 48.4 °F 60% 30.03 in 10.0 mi SE 11.5 mph - N/A   Clear
11:35 AM 64.2 °F - 48.4 °F 56% 30.03 in 10.0 mi SE 8.1 mph - N/A   Clear
11:55 AM 65.3 °F - 48.4 °F 54% 30.03 in 10.0 mi SE 12.7 mph 17.3 mph N/A   Clear
12:15 PM 66.9 °F - 48.4 °F 51% 30.02 in 10.0 mi SE 13.8 mph - N/A   Clear
12:35 PM 67.5 °F - 48.7 °F 51% 30.02 in 10.0 mi SE 11.5 mph 18.4 mph N/A   Clear
12:55 PM 68.5 °F - 48.7 °F 49% 30.01 in 10.0 mi ESE 17.3 mph 21.9 mph N/A   Clear
1:15 PM 68.4 °F - 47.7 °F 48% 30.00 in 10.0 mi SE 10.4 mph 21.9 mph N/A   Clear
1:35 PM 69.6 °F - 48.4 °F 47% 29.99 in 10.0 mi SE 12.7 mph 24.2 mph N/A   Clear
1:55 PM 70.3 °F - 48.2 °F 45% 29.98 in 10.0 mi SSE 15.0 mph 24.2 mph N/A   Clear
2:15 PM 70.7 °F - 47.5 °F 44% 29.98 in 10.0 mi SSE 13.8 mph 19.6 mph N/A   Clear
2:35 PM 70.9 °F - 47.1 °F 43% 29.97 in 10.0 mi SE 15.0 mph 21.9 mph N/A   Clear
2:55 PM 72.1 °F - 46.6 °F 40% 29.97 in 10.0 mi SSE 16.1 mph 23.0 mph N/A   Clear
3:15 PM 71.6 °F - 47.3 °F 42% 29.97 in 10.0 mi SE 12.7 mph - N/A   Clear
3:35 PM 71.8 °F - 46.2 °F 40% 29.97 in 10.0 mi SSE 15.0 mph 23.0 mph N/A   Clear
3:55 PM 71.6 °F - 45.7 °F 39% 29.96 in 10.0 mi SE 15.0 mph 20.7 mph N/A   Clear
4:15 PM 72.5 °F - 46.2 °F 39% 29.96 in 10.0 mi SE 15.0 mph - N/A   Clear
4:35 PM 72.0 °F - 46.4 °F 40% 29.96 in 10.0 mi SE 13.8 mph - N/A   Clear
4:55 PM 71.6 °F - 46.6 °F 41% 29.95 in 10.0 mi SE 13.8 mph - N/A   Clear
5:15 PM 71.2 °F - 46.4 °F 41% 29.95 in 10.0 mi SE 15.0 mph - N/A   Clear
5:35 PM 70.3 °F - 47.1 °F 43% 29.96 in 10.0 mi SE 12.7 mph - N/A   Clear
5:55 PM 68.9 °F - 47.1 °F 46% 29.96 in 10.0 mi SE 10.4 mph 16.1 mph N/A   Clear
6:15 PM 68.0 °F - 48.4 °F 49% 29.96 in 10.0 mi ESE 9.2 mph - N/A   Clear
6:35 PM 66.9 °F - 49.1 °F 53% 29.96 in 10.0 mi ESE 8.1 mph - N/A   Clear
6:55 PM 64.6 °F - 49.1 °F 57% 29.96 in 10.0 mi SE 6.9 mph - N/A   Clear
7:15 PM 62.6 °F - 48.7 °F 60% 29.97 in 10.0 mi ESE 6.9 mph - N/A   Clear
7:35 PM 61.0 °F - 49.1 °F 65% 29.97 in 10.0 mi ESE 5.8 mph - N/A   Clear
7:55 PM 59.2 °F - 48.9 °F 69% 29.97 in 10.0 mi ESE 6.9 mph - N/A   Clear
8:15 PM 57.6 °F - 49.1 °F 73% 29.98 in 10.0 mi ESE 5.8 mph - N/A   Clear
8:35 PM 57.6 °F - 49.5 °F 74% 29.98 in 10.0 mi ESE 6.9 mph - N/A   Clear
8:55 PM 56.5 °F - 49.3 °F 77% 29.98 in 10.0 mi ESE 5.8 mph - N/A   Clear
9:15 PM 56.3 °F - 49.5 °F 78% 29.98 in 10.0 mi ESE 5.8 mph - N/A   Clear
9:35 PM 56.3 °F - 49.1 °F 77% 29.98 in 10.0 mi East 4.6 mph - N/A   Clear
9:55 PM 55.4 °F - 48.7 °F 78% 29.99 in 10.0 mi East 4.6 mph - N/A   Clear
10:15 PM 54.9 °F - 48.6 °F 79% 29.99 in 10.0 mi East 3.5 mph - N/A   Clear
10:35 PM 54.5 °F - 48.6 °F 80% 29.99 in 10.0 mi East 4.6 mph - N/A   Clear
10:55 PM 53.8 °F - 48.6 °F 82% 29.99 in 10.0 mi East 4.6 mph - N/A   Clear
11:15 PM 53.2 °F - 48.4 °F 84% 29.99 in 10.0 mi East 4.6 mph - N/A   Clear
11:35 PM 52.0 °F - 47.8 °F 86% 30.00 in 10.0 mi Calm Calm - N/A   Clear
11:55 PM 52.3 °F - 48.2 °F 86% 30.00 in 10.0 mi ESE 3.5 mph - N/A   Clear